THORAD DELTA 1 DEB, 9695

Orbit data source: Space-Track

THORAD DELTA 1 DEB, 9695 is space debris in LEO originally from a launch on Fri, 15 Nov 1974 UTC launched from the Air Force Western Test Range (AFWTR). Debris objects in space refer to the collection of defunct objects orbiting the Earth. Examples of debris include non-operational satellites, rocket bodies, and fragments generated from explosions, collisions, or faulty payload assembly.

Loading next visibility...
Identifier
9695, 1974-089DU
Orbit
LEO
Country
Flag of USUS
Related business
Manufacturer
Unknown
Mission
Spacecraft
Bus & Motor
Unknown
Mass
Unknown
Launch date (UTC)
1974-11-15 (52 years ago)
Launch vehicle
Unknown
Launch site
Air Force Western Test Range (AFWTR)
Object type
Payload
Rocket body
Debris
Shape & HBR
Unknown shape, 0.1 m
Radar Cross Section
Medium (>0.1 m² and <1 m²)

Expand to show TLE details & history
Last TLE update: 1 day ago

TLE from 1 day ago
0 THORAD DELTA 1 DEB
1 09695U 74089DU  26207.03938751  .00001348  00000-0  16631-2 0  9995
2 09695 103.0129 236.1275 0279047 213.5848 144.7311 13.52960844445593
Epoch: 2026-07-26T00:56Z
TLE epoch observation values (Epoch: 2026-07-26T00:56:43.080Z)
Latitude
0.00003°
Longitude
-81.79505°
Altitude
1,235.432 km
Speed
7.153 km/s
True Right ascension
15h 44m 30s
True Declination
0° 00' 00"
Sunlit
Object was in daylight at epoch
Visualization orbit readout
Latitude
Unknown
Longitude
Unknown
Altitude
Unknown
Speed
Unknown
Apparent Right ascension
Unknown
Apparent Declination
Unknown
Sunlit
N/A
Visualization observer readout
Local Sidereal Time
18:32:03
Azimuth
Unknown
Elevation
Unknown
Doppler factor
Unknown
Orbital elements
Apogee altitude
1,266.405 km
Perigee altitude
851.35 km
Semi-major axis
7,437.014 km
Eccentricity
0.0279
Inclination
103.0129°
RAAN
236.1275°
Arg. of periapsis
213.5848°
True anomaly
146.52599°
Mean anomaly
144.7311°
Eccentric anomaly
145.63361°
Mean motion
3.38412 °/min
Orbital period
106.38 mins
BSTAR
0.0016631
Loading maneuver chart data...
Computing Atmospheric mass density...
Loading historical data...
Loading historical data...
Loading historical data...
Loading historical data...
Loading historical data...
Loading historical data...
Loading historical data...

Documentation

Showing up to 5 results
|